Météo par heure à Julkow

Ce jour, 16 Juin, Mercredi

Heure Température Précipitation Vent Pression Humidité
00:00 +16°C° 0 mm 2 m/s 749 mmHg 89%
01:00 +16°C° 0 mm 2 m/s 749 mmHg 90%
02:00 +15°C° 0 mm 2 m/s 749 mmHg 92%
03:00 +15°C° 0 mm 2 m/s 749 mmHg 94%
04:00 +15°C° 0 mm 2 m/s 749 mmHg 95%
05:00 +15°C° 0 mm 2 m/s 749 mmHg 97%
06:00 +16°C° 0 mm 2 m/s 750 mmHg 89%
07:00 +17°C° 0 mm 3 m/s 750 mmHg 81%
08:00 +18°C° 0 mm 3 m/s 751 mmHg 72%
09:00 +19°C° 0 mm 3 m/s 751 mmHg 69%
10:00 +20°C° 0 mm 2 m/s 751 mmHg 66%
11:00 +21°C° 0 mm 2 m/s 751 mmHg 63%
12:00 +21°C° 0 mm 2 m/s 751 mmHg 61%
13:00 +22°C° 0 mm 3 m/s 751 mmHg 60%
14:00 +22°C° 0 mm 3 m/s 751 mmHg 63%
15:00 +22°C° 0 mm 3 m/s 751 mmHg 62%
16:00 +22°C° 0 mm 3 m/s 751 mmHg 61%
17:00 +24°C° 0 mm 3 m/s 751 mmHg 59%
18:00 +21°C° 0 mm 3 m/s 751 mmHg 64%
19:00 +20°C° 0 mm 3 m/s 751 mmHg 69%
20:00 +18°C° 0 mm 2 m/s 751 mmHg 74%
21:00 +17°C° 0 mm 2 m/s 751 mmHg 76%
22:00 +16°C° 0 mm 2 m/s 751 mmHg 77%
23:00 +14°C° 0 mm 2 m/s 752 mmHg 79%

Demain, 17 Juin, Jeudi

Heure Température Précipitation Vent Pression Humidité
00:00 +14°C° 0 mm 2 m/s 752 mmHg 81%
01:00 +13°C° 0 mm 2 m/s 752 mmHg 83%
02:00 +13°C° 0 mm 2 m/s 752 mmHg 85%
03:00 +13°C° 0 mm 2 m/s 752 mmHg 86%
04:00 +13°C° 0 mm 2 m/s 752 mmHg 87%
05:00 +13°C° 0 mm 2 m/s 752 mmHg 88%
06:00 +15°C° 0 mm 2 m/s 753 mmHg 82%
07:00 +17°C° 0 mm 2 m/s 753 mmHg 76%
08:00 +19°C° 0 mm 2 m/s 753 mmHg 70%
09:00 +20°C° 0 mm 3 m/s 753 mmHg 64%
10:00 +21°C° 0 mm 3 m/s 753 mmHg 59%
11:00 +24°C° 0 mm 3 m/s 754 mmHg 53%
12:00 +25°C° 0 mm 3 m/s 753 mmHg 51%
13:00 +25°C° 0 mm 3 m/s 753 mmHg 49%
14:00 +26°C° 0 mm 2 m/s 753 mmHg 47%
15:00 +26°C° 0 mm 2 m/s 753 mmHg 48%
16:00 +26°C° 0 mm 3 m/s 753 mmHg 49%
17:00 +26°C° 0 mm 3 m/s 753 mmHg 51%
18:00 +25°C° 0 mm 3 m/s 753 mmHg 59%
19:00 +24°C° 0 mm 3 m/s 753 mmHg 67%
20:00 +21°C° 0 mm 2 m/s 753 mmHg 76%
21:00 +20°C° 0 mm 2 m/s 753 mmHg 79%
22:00 +19°C° 0 mm 2 m/s 753 mmHg 83%
23:00 +18°C° 0 mm 2 m/s 754 mmHg 86%

Après-demain, 18 Juin, Vendredi

Heure Température Précipitation Vent Pression Humidité
00:00 +18°C° 0 mm 2 m/s 753 mmHg 88%
01:00 +17°C° 0 mm 2 m/s 753 mmHg 90%
02:00 +17°C° 0 mm 2 m/s 753 mmHg 91%
03:00 +17°C° 0 mm 3 m/s 753 mmHg 91%
04:00 +17°C° 0 mm 3 m/s 753 mmHg 92%
05:00 +16°C° 0 mm 3 m/s 753 mmHg 92%
06:00 +18°C° 0 mm 3 m/s 753 mmHg 86%
07:00 +20°C° 0 mm 3 m/s 753 mmHg 79%
08:00 +22°C° 0 mm 4 m/s 753 mmHg 72%
09:00 +23°C° 0 mm 4 m/s 753 mmHg 67%
10:00 +25°C° 0 mm 4 m/s 753 mmHg 63%
11:00 +27°C° 0 mm 4 m/s 753 mmHg 58%
12:00 +27°C° 0 mm 4 m/s 753 mmHg 55%
13:00 +28°C° 0 mm 4 m/s 753 mmHg 53%
14:00 +28°C° 0 mm 4 m/s 753 mmHg 51%
15:00 +28°C° 0 mm 4 m/s 752 mmHg 52%
16:00 +28°C° 0 mm 4 m/s 752 mmHg 54%
17:00 +28°C° 0 mm 4 m/s 752 mmHg 55%
18:00 +27°C° 0 mm 3 m/s 752 mmHg 63%
19:00 +25°C° 0 mm 3 m/s 752 mmHg 70%
20:00 +22°C° 0 mm 3 m/s 752 mmHg 78%
21:00 +21°C° 0 mm 3 m/s 752 mmHg 80%
22:00 +20°C° 0 mm 3 m/s 752 mmHg 83%
23:00 +19°C° 0 mm 3 m/s 752 mmHg 86%

19 Juin, Samedi

Heure Température Précipitation Vent Pression Humidité
00:00 +18°C° 0 mm 3 m/s 752 mmHg 87%
01:00 +18°C° 0 mm 3 m/s 752 mmHg 89%
02:00 +17°C° 0 mm 3 m/s 752 mmHg 90%
03:00 +17°C° 0 mm 3 m/s 752 mmHg 91%
04:00 +17°C° 0 mm 3 m/s 752 mmHg 92%
05:00 +17°C° 0 mm 3 m/s 752 mmHg 94%
06:00 +19°C° 0 mm 3 m/s 752 mmHg 88%
07:00 +21°C° 0 mm 4 m/s 752 mmHg 82%
08:00 +23°C° 0 mm 4 m/s 752 mmHg 77%
09:00 +25°C° 0 mm 4 m/s 752 mmHg 72%
10:00 +26°C° 0 mm 4 m/s 752 mmHg 67%
11:00 +27°C° 0 mm 5 m/s 752 mmHg 62%
12:00 +28°C° 0 mm 5 m/s 751 mmHg 59%
13:00 +29°C° 0 mm 5 m/s 751 mmHg 56%
14:00 +30°C° 0 mm 4 m/s 751 mmHg 53%
15:00 +29°C° 0 mm 4 m/s 751 mmHg 54%
16:00 +29°C° 0 mm 4 m/s 751 mmHg 56%
17:00 +29°C° 0 mm 4 m/s 750 mmHg 57%
18:00 +28°C° 0 mm 3 m/s 750 mmHg 63%
19:00 +26°C° 0 mm 3 m/s 750 mmHg 69%
20:00 +25°C° 0 mm 2 m/s 750 mmHg 75%
21:00 +23°C° 0 mm 2 m/s 750 mmHg 79%
22:00 +21°C° 0 mm 3 m/s 750 mmHg 83%
23:00 +20°C° 0 mm 3 m/s 750 mmHg 87%

20 Juin, Dimanche

Heure Température Précipitation Vent Pression Humidité
00:00 +19°C° 0 mm 3 m/s 750 mmHg 89%
01:00 +19°C° 0 mm 3 m/s 750 mmHg 91%
02:00 +18°C° 0 mm 2 m/s 750 mmHg 94%
03:00 +18°C° 0 mm 2 m/s 750 mmHg 94%
04:00 +17°C° 0 mm 2 m/s 750 mmHg 94%
05:00 +17°C° 0 mm 2 m/s 750 mmHg 95%
06:00 +19°C° 0 mm 3 m/s 750 mmHg 89%
07:00 +20°C° 0 mm 4 m/s 750 mmHg 83%
08:00 +22°C° 0 mm 4 m/s 750 mmHg 76%
09:00 +23°C° 0 mm 4 m/s 750 mmHg 71%
10:00 +26°C° 0 mm 5 m/s 750 mmHg 65%
11:00 +27°C° 0 mm 5 m/s 750 mmHg 60%
12:00 +28°C° 0 mm 5 m/s 750 mmHg 57%
13:00 +28°C° 0 mm 4 m/s 749 mmHg 54%
14:00 +29°C° 0 mm 4 m/s 749 mmHg 50%
15:00 +29°C° 0 mm 4 m/s 749 mmHg 52%
16:00 +29°C° 0 mm 3 m/s 749 mmHg 53%
17:00 +29°C° 0 mm 3 m/s 748 mmHg 55%
18:00 +28°C° 0 mm 3 m/s 748 mmHg 61%
19:00 +26°C° 0 mm 3 m/s 748 mmHg 67%
20:00 +25°C° 0 mm 3 m/s 748 mmHg 73%
21:00 +24°C° 0 mm 3 m/s 748 mmHg 76%
22:00 +22°C° 0 mm 3 m/s 748 mmHg 80%
23:00 +21°C° 0 mm 3 m/s 748 mmHg 83%

21 Juin, Lundi

Heure Température Précipitation Vent Pression Humidité
00:00 +20°C° 0 mm 3 m/s 748 mmHg 86%
01:00 +20°C° 0 mm 3 m/s 748 mmHg 89%
02:00 +19°C° 0 mm 3 m/s 748 mmHg 93%
03:00 +19°C° 0 mm 3 m/s 748 mmHg 93%
04:00 +19°C° 0 mm 3 m/s 748 mmHg 93%
05:00 +19°C° 0 mm 3 m/s 748 mmHg 93%
06:00 +20°C° 0 mm 3 m/s 748 mmHg 87%
07:00 +22°C° 0 mm 3 m/s 748 mmHg 80%
08:00 +25°C° 0 mm 4 m/s 748 mmHg 73%
09:00 +26°C° 0 mm 4 m/s 748 mmHg 67%
10:00 +27°C° 0 mm 5 m/s 748 mmHg 62%
11:00 +28°C° 0 mm 5 m/s 748 mmHg 56%
12:00 +29°C° 0 mm 5 m/s 747 mmHg 53%
13:00 +30°C° 0 mm 5 m/s 747 mmHg 51%
14:00 +30°C° 0 mm 4 m/s 747 mmHg 48%
15:00 +30°C° 0 mm 4 m/s 747 mmHg 50%
16:00 +30°C° 0 mm 4 m/s 747 mmHg 52%
17:00 +30°C° 0 mm 4 m/s 746 mmHg 54%
18:00 +28°C° 0 mm 3 m/s 746 mmHg 61%
19:00 +27°C° 0 mm 3 m/s 746 mmHg 68%
20:00 +25°C° 0 mm 3 m/s 746 mmHg 76%
21:00 +25°C° 0 mm 3 m/s 746 mmHg 77%
22:00 +24°C° 0 mm 3 m/s 746 mmHg 78%
23:00 +24°C° 0 mm 2 m/s 746 mmHg 80%
Voir plus

Nous avons besoin de votre consentement

Meteoprog et ses fournisseurs de services peuvent stocker et accéder à des données personnelles telles que des cookies, des identifiants d'appareils ou d'autres technologies similaires sur votre appareil et traiter ces données pour personnaliser le contenu et les publicités, ainsi que pour fournir des fonctionnalités de médias sociaux et analyser le trafic.

  • Stocker et/ou accéder à des informations sur votre appareil

    Des cookies, des identifiants d'appareils ou d'autres informations peuvent être stockés ou accessibles sur votre appareil aux fins indiquées ci-dessus.

  • Annonces et contenus personnalisés, mesure des annonces et des contenus, connaissance de l'audience et développement de produits

    Les annonces et le contenu peuvent être personnalisés en fonction d'un profil. D'autres données peuvent être ajoutées pour mieux personnaliser les annonces et le contenu. Les performances des publicités et du contenu peuvent être mesurées. Il est possible d'obtenir des informations sur le public qui a vu les publicités et le contenu. Ces données peuvent être utilisées pour développer ou améliorer l'expérience de l'utilisateur, les systèmes et les logiciels.

En cliquant sur "J'accepte", vous autorisez l'utilisation de cookies, des identifiants d'appareils, des balises web ou d'autres technologies similaires. Vos paramètres peuvent être modifiés dans le navigateur de votre appareil.

Dans certains cas, des intérêts légitimes peuvent être invoqués plutôt qu'un consentement. Vous pouvez en savoir plus à ce sujet dans notre Politique de confidentialité et de cookies.